Weather History for Racine, WI

Change the Weather History Date:

Saturday, November 2, 2013

  Actual Average Record
Temperature  
Mean Temperature 44 °F -  
Max Temperature 48 °F 51 °F 76 °F (1961)
Min Temperature 41 °F 40 °F 11 °F (1951)
Degree Days  
Heating Degree Days 22    
Moisture  
Dew Point 39 °F    
Average Humidity 82    
Maximum Humidity 93    
Minimum Humidity 66    
Precipitation  
Precipitation 0.09 in - - ()
Sea Level Pressure  
Sea Level Pressure 29.97 in    
Wind  
Wind Speed 6 mph (NNW)    
Max Wind Speed 12 mph    
Max Gust Speed -    
Visibility 9 miles    
Events Rain    
Averages and records for this station are not official NWS values.
T = Trace of Precipitation, MM = Missing Value Source: NWS Daily Summary

Daily Weather History Graph

Daily Weather History Graph

Search for Another Location

Airport:

Trip Planner

Search our weather history database for the weather conditions in past years. The results will help you decide how hot, cold, wet, or windy it might be!

Date:

Astronomy

Nov. 02, 2013 Rise Set
Actual Time 7:26 AM CDT 5:42 PM CDT
Civil Twilight 6:57 AM CDT 6:11 PM CDT
Nautical Twilight 6:23 AM CDT 6:45 PM CDT
Astronomical Twilight 5:50 AM CDT 7:17 PM CDT
Moon 6:22 AM CDT (11/2) 5:13 PM CDT (11/2)
Length of Visible Light 11h 14m
Length of Day
10h 15m
Waning Crescent, 1% of the Moon is Illuminated
Nov 2
Waning Crescent
Nov 3
New
Nov 9
First Quarter
Nov 17
Full
Nov 25
Last Quarter

Hourly Weather History & Observations

Time (CDT) Temp. Windchill Dew Point Humidity Pressure Visibility Wind Dir Wind Speed Gust Speed Precip Events Conditions
12:53 AM 44.1 °F 41.5 °F 41.0 °F 89% 29.75 in 6.0 mi WNW 4.6 mph - N/A   Overcast
1:53 AM 44.1 °F 41.5 °F 41.0 °F 89% 29.76 in 5.0 mi WNW 4.6 mph - N/A   Overcast
2:53 AM 44.1 °F 40.8 °F 41.0 °F 89% 29.77 in 6.0 mi WNW 5.8 mph - N/A   Overcast
3:06 AM 44.6 °F 41.4 °F 41.0 °F 87% 29.76 in 6.0 mi WNW 5.8 mph - N/A   Overcast
3:53 AM 44.1 °F 41.5 °F 41.0 °F 89% 29.78 in 7.0 mi NW 4.6 mph - N/A   Overcast
4:53 AM 44.1 °F 40.1 °F 39.9 °F 85% 29.80 in 10.0 mi NW 6.9 mph - N/A   Overcast
5:53 AM 44.1 °F 40.8 °F 41.0 °F 89% 29.82 in 9.0 mi NW 5.8 mph - 0.00 in   Overcast
6:53 AM 43.0 °F 39.5 °F 41.0 °F 93% 29.84 in 8.0 mi NW 5.8 mph - N/A   Overcast
7:08 AM 44.6 °F 42.2 °F 41.0 °F 87% 29.84 in 8.0 mi NW 4.6 mph - N/A   Overcast
7:15 AM 44.6 °F 42.2 °F 41.0 °F 87% 29.84 in 7.0 mi NW 4.6 mph - N/A   Overcast
7:53 AM 43.0 °F 38.8 °F 39.9 °F 89% 29.87 in 10.0 mi NNW 6.9 mph - 0.01 in   Overcast
8:26 AM 44.6 °F 40.7 °F 39.2 °F 81% 29.87 in 10.0 mi NW 6.9 mph - N/A   Overcast
8:53 AM 44.1 °F 40.8 °F 39.9 °F 85% 29.90 in 10.0 mi NW 5.8 mph - N/A   Overcast
9:53 AM 45.0 °F 40.6 °F 37.9 °F 76% 29.92 in 10.0 mi North 8.1 mph - 0.00 in   Overcast
10:53 AM 46.0 °F 41.4 °F 37.9 °F 73% 29.94 in 10.0 mi NNW 9.2 mph - N/A   Overcast
11:25 AM 46.4 °F 42.4 °F 39.2 °F 76% 29.94 in 10.0 mi North 8.1 mph - N/A   Overcast
11:38 AM 46.4 °F 42.4 °F 39.2 °F 76% 29.95 in 10.0 mi NNE 8.1 mph - N/A   Overcast
11:53 AM 46.9 °F - 39.0 °F 74% 29.96 in 10.0 mi NE 8.1 mph - N/A   Overcast
12:53 PM 46.9 °F - 37.9 °F 71% 29.97 in 10.0 mi North 9.2 mph - N/A   Overcast
1:53 PM 45.0 °F 40.1 °F 35.1 °F 68% 29.99 in 10.0 mi North 9.2 mph - N/A   Overcast
2:53 PM 46.0 °F 41.4 °F 35.1 °F 66% 30.01 in 10.0 mi NNE 9.2 mph - N/A   Overcast
3:53 PM 45.0 °F 39.3 °F 37.0 °F 74% 30.03 in 10.0 mi NNE 11.5 mph - N/A   Overcast
4:53 PM 44.1 °F 40.1 °F 36.0 °F 73% 30.05 in 10.0 mi NNW 6.9 mph - N/A   Overcast
5:53 PM 43.0 °F 39.5 °F 37.0 °F 80% 30.07 in 10.0 mi North 5.8 mph - 0.00 in   Overcast
6:13 PM 44.6 °F 40.2 °F 37.4 °F 76% 30.07 in 10.0 mi North 8.1 mph - N/A   Overcast
6:40 PM 41.0 °F 36.4 °F 37.4 °F 87% 30.08 in 2.0 mi North 6.9 mph - 0.07 in Rain Heavy Rain
6:50 PM 42.8 °F - 37.4 °F 81% 30.09 in 3.0 mi Calm Calm - 0.08 in Rain Rain
6:53 PM 42.1 °F 40.2 °F 37.9 °F 85% 30.10 in 4.0 mi North 3.5 mph - 0.08 in Rain Light Rain
7:19 PM 42.8 °F 41.1 °F 39.2 °F 87% 30.09 in 10.0 mi NW 3.5 mph - 0.00 in   Overcast
7:53 PM 42.1 °F 40.2 °F 39.0 °F 89% 30.12 in 10.0 mi WNW 3.5 mph - 0.00 in   Overcast
8:53 PM 42.1 °F 39.2 °F 37.9 °F 85% 30.14 in 10.0 mi NW 4.6 mph - N/A   Overcast
9:45 PM 42.8 °F 40.1 °F 37.4 °F 81% 30.14 in 10.0 mi NW 4.6 mph - N/A   Overcast
9:53 PM 42.1 °F 40.2 °F 37.9 °F 85% 30.15 in 10.0 mi NW 3.5 mph - N/A   Overcast
10:23 PM 41.0 °F 39.0 °F 37.4 °F 87% 30.15 in 10.0 mi NNW 3.5 mph - N/A   Overcast
10:53 PM 41.0 °F 38.0 °F 37.0 °F 86% 30.16 in 10.0 mi NNW 4.6 mph - N/A   Overcast
11:53 PM 41.0 °F 39.0 °F 37.0 °F 86% 30.17 in 10.0 mi NNW 3.5 mph - N/A   Overcast